Home > Weather > Windhoek > Past weeks

Flag for Namibia Weather for the Past 2 Weeks in Windhoek, Namibia

Now
73 °F

Sunny.


Feels Like: 76 °F
Forecast: 64 / 92 °F
Wind: 2 mph from South

Location: Windhoek

Current Time: Feb 10, 2016 at 9:21:06 AM

Latest Report: Feb 10, 2016 at 8:00 AM


Visibility: 10 mi

Pressure: 30.18 "Hg (24.86 "Hg at 1680m altitude)

Humidity: 25%

Dew point: 36 °F

Location of WindhoekLocation

Historic Weather in Windhoek — Graph

°F

Windhoek Temperature Yesterday

Maximum temperature yesterday: 95 °F (at 4:00 PM)
Minimum temperature yesterday: 72 °F (at 6:00 AM)
Average temperature yesterday: 81 °F

High & Low Weather Summary for the Past Weeks

 TemperatureHumidityPressure
High95 °F (Feb 9, 4:00 PM)94% (Jan 29, 10:00 PM)30.33 "Hg (Jan 29, 10:00 PM)
Low59 °F (Jan 27, 6:00 AM)14% (Feb 10, 3:00 AM)30.01 "Hg (Feb 9, 5:00 AM)
Average76 °F40%30.18 "Hg
* Reported Jan 26 8:00 AM — Feb 10 8:00 AM, Windhoek, Weather by CustomWeather, © 2016

Note: Actual official high and low records may vary slightly from our data, if they occured in-between our weather recording intervals... More about our weather records

Advertising

Windhoek Weather History for the Previous 24 Hours

 ConditionsComfort  
Time TempWeatherWind HumidityBarometerVisibility
8:00 AM
Wed, Feb 10
73 °FSunny.2 mph25%30.18 "Hg10 mi
7:00 AM64 °FSunny.5 mph30%30.15 "Hg10 mi
6:00 AM70 °FClear.3 mph23%30.15 "Hg10 mi
5:00 AM72 °FMild.3 mph22%30.15 "HgN/A
4:00 AM73 °FMild.3 mph17%30.15 "HgN/A
3:00 AM77 °FPleasantly warm.8 mph14%30.12 "HgN/A
1:00 AM75 °FMild.3 mph19%30.18 "HgN/A
12:00 AM75 °FMild.3 mph22%30.18 "HgN/A
11:00 PM
Tue, Feb 9
77 °FPleasantly warm.2 mph24%30.18 "HgN/A
10:00 PM79 °FPleasantly warm.2 mph23%30.15 "HgN/A
4:00 PM95 °FPassing clouds.8 mph16%30.07 "HgN/A
3:00 PM91 °FPartly sunny.6 mph17%30.09 "HgN/A
2:00 PM93 °FPartly sunny.3 mph15%30.12 "HgN/A
1:00 PM91 °FScattered clouds.7 mph20%30.15 "HgN/A
12:00 PM90 °FPassing clouds.5 mph20%30.18 "HgN/A
11:00 AM88 °FSunny.8 mph22%30.18 "Hg10 mi
10:00 AM86 °FSunny.10 mph20%30.18 "Hg10 mi
9:00 AM81 °FSunny.9 mph21%30.18 "Hg10 mi
Weather by CustomWeather, © 2016

See weather overviewHow to use our weather pages